Weather in Stefan Voda

Moldova     46°30′57″N   29°39′37″E
temp.,
°C
wind,
m/s
gust,
m/s
humid.,
%
clouds,
%
prec.,
mm/h
press.,
hPa
HPBL,
m
12 april, mon
mon1200:00+9nnw33495 0.0 102523
03:00+7nnw335864 0.0 102438
06:00+6nnw346399 0.0 102345
09:00+10n3651100 0.0 1022276
12:00+15n4437100 0.0 10211256
15:00+14nne3342100 0.0 10201133
18:00+15nnw3443100 0.0 10201095
21:00+8se5776100 0.0 1022210
13 april, tue
tue1300:00+7s348063 0.0 1021115
03:00+7s228191 0.0 102018
06:00+7sse1176100 0.0 102011
09:00+10sse2264100 0.0 1020198
12:00+13sse3351100 0.0 1020843
15:00+15s5347100 0.0 10191310
18:00+12sse5660100 0.0 1018620
21:00+9sse5971100 0.0 1018314
14 april, wed
wed1400:00+8sse51079100 0.0 1018329
03:00+7sse3783100 0.0 1017226
06:00+7sse3685100 0.0 1016198
09:00+10se5773100 0.0 1016586
12:00+11se6866100 0.0 1015920
15:00+12se6760100 0.0 10141040
18:00+10se6871100 0.0 1014770
21:00+8e4893100 1.1 1014412
15 april, thu
thu1500:00+8e4796100 1.7 1012447
03:00+8ene4798100 7.0 1012374
06:00+8ene3598100 0.6 1011403
09:00+9ene1296100 0.8 1011365
12:00+10w1185100 0.1 1012428
15:00+9nw6791100 0.4 1012542
18:00+6wnw61090100 0.1 1014458
21:00+5wnw5989100 0.4 1015419
16 april, fri
fri1600:00+5wnw61092100 0.0 1014423
03:00+4wnw61096100 0.0 1014521
06:00+3wnw71196100 0.0 1015580
09:00+4wnw81383100 0.0 1015836
12:00+6w91275100 0.0 1016944
15:00+9wnw81059100 0.1 10161493
18:00+9wnw465659 0.0 10161218
21:00+5nnw348115 0.0 101762